Time,TemperatureF,DewpointF,PressureIn,WindDirection,WindDirectionDegrees,WindSpeedMPH,WindSpeedGustMPH,Humidity,HourlyPrecipIn,Conditions,Clouds,dailyrainin,SoftwareType,DateUTC
2013-08-28 00:00:00,56.1,49.0,22.47,SW,225,10.0,11.0,77,0.00,,,0.00,Rainwise IP-100,2013-08-28 06:00:00,
2013-08-28 00:05:00,55.9,49.0,22.46,SSW,202,6.3,11.0,77,0.00,,,0.00,Rainwise IP-100,2013-08-28 06:05:00,
2013-08-28 00:10:00,55.8,49.0,22.47,WSW,247,6.5,10.0,77,0.00,,,0.00,Rainwise IP-100,2013-08-28 06:10:00,
2013-08-28 00:15:00,55.3,48.0,22.47,West,270,8.6,9.0,78,0.00,,,0.00,Rainwise IP-100,2013-08-28 06:15:00,
2013-08-28 00:20:00,54.5,48.0,22.47,WSW,247,6.1,8.0,80,0.00,,,0.00,Rainwise IP-100,2013-08-28 06:20:00,
2013-08-28 00:25:00,54.3,48.0,22.47,WSW,247,7.5,9.0,81,0.00,,,0.00,Rainwise IP-100,2013-08-28 06:25:00,
2013-08-28 00:30:00,54.4,49.0,22.47,SSW,202,9.6,10.0,81,0.00,,,0.00,Rainwise IP-100,2013-08-28 06:30:00,
2013-08-28 00:35:00,54.4,49.0,22.47,West,270,7.9,10.0,82,0.00,,,0.00,Rainwise IP-100,2013-08-28 06:35:00,
2013-08-28 00:40:00,54.1,48.0,22.47,WSW,247,6.1,8.0,82,0.00,,,0.00,Rainwise IP-100,2013-08-28 06:40:00,
2013-08-28 00:45:00,54.6,49.0,22.47,WSW,247,7.9,11.0,81,0.00,,,0.00,Rainwise IP-100,2013-08-28 06:45:00,
2013-08-28 00:50:00,55.3,49.0,22.47,WSW,247,8.2,11.0,79,0.00,,,0.00,Rainwise IP-100,2013-08-28 06:50:00,
2013-08-28 00:56:00,55.7,49.0,22.47,WNW,292,7.2,9.0,77,0.00,,,0.00,Rainwise IP-100,2013-08-28 06:56:00,
2013-08-28 01:01:00,55.7,48.0,22.47,WNW,292,6.8,8.0,76,0.00,,,0.00,Rainwise IP-100,2013-08-28 07:01:00,
2013-08-28 01:06:00,55.4,48.0,22.47,WSW,247,6.5,9.0,78,0.00,,,0.00,Rainwise IP-100,2013-08-28 07:06:00,
2013-08-28 01:11:00,55.5,49.0,22.47,SSW,202,4.0,8.0,78,0.00,,,0.00,Rainwise IP-100,2013-08-28 07:11:00,
2013-08-28 01:16:00,54.9,48.0,22.47,WSW,247,4.9,9.0,78,0.00,,,0.00,Rainwise IP-100,2013-08-28 07:16:00,
2013-08-28 01:21:00,53.8,47.0,22.47,SW,225,9.1,10.0,80,0.00,,,0.00,Rainwise IP-100,2013-08-28 07:21:00,
2013-08-28 01:26:00,53.6,47.0,22.47,SW,225,8.2,11.0,81,0.00,,,0.00,Rainwise IP-100,2013-08-28 07:26:00,
2013-08-28 01:31:00,53.7,47.0,22.47,SSW,202,9.1,10.0,81,0.00,,,0.00,Rainwise IP-100,2013-08-28 07:31:00,
2013-08-28 01:36:00,53.4,47.0,22.47,SW,225,7.5,11.0,81,0.00,,,0.00,Rainwise IP-100,2013-08-28 07:36:00,
2013-08-28 01:41:00,53.4,48.0,22.47,SW,225,9.8,11.0,82,0.00,,,0.00,Rainwise IP-100,2013-08-28 07:41:00,
2013-08-28 01:46:00,53.7,47.0,22.47,West,270,8.4,11.0,81,0.00,,,0.00,Rainwise IP-100,2013-08-28 07:46:00,
2013-08-28 01:51:00,53.9,48.0,22.47,SW,225,9.3,13.0,80,0.00,,,0.00,Rainwise IP-100,2013-08-28 07:51:00,
2013-08-28 01:57:00,53.5,47.0,22.47,WNW,292,7.7,11.0,81,0.00,,,0.00,Rainwise IP-100,2013-08-28 07:57:00,
2013-08-28 02:02:00,53.3,47.0,22.47,West,270,12.8,12.8,81,0.00,,,0.00,Rainwise IP-100,2013-08-28 08:02:00,
2013-08-28 02:07:00,53.7,47.0,22.47,WSW,247,6.8,13.0,81,0.00,,,0.00,Rainwise IP-100,2013-08-28 08:07:00,
2013-08-28 02:12:00,54.3,48.0,22.47,WSW,247,5.8,8.0,80,0.00,,,0.00,Rainwise IP-100,2013-08-28 08:12:00,
2013-08-28 02:17:00,53.8,47.0,22.47,WSW,247,9.1,11.0,80,0.00,,,0.00,Rainwise IP-100,2013-08-28 08:17:00,
2013-08-28 02:22:00,53.0,47.0,22.47,NNW,337,9.6,13.0,81,0.00,,,0.00,Rainwise IP-100,2013-08-28 08:22:00,
2013-08-28 02:27:00,53.0,47.0,22.47,SSW,202,11.2,15.0,82,0.00,,,0.00,Rainwise IP-100,2013-08-28 08:27:00,
2013-08-28 02:32:00,52.7,47.0,22.47,West,270,7.0,13.0,82,0.00,,,0.00,Rainwise IP-100,2013-08-28 08:32:00,
2013-08-28 02:37:00,52.0,47.0,22.47,WSW,247,7.7,9.0,83,0.00,,,0.00,Rainwise IP-100,2013-08-28 08:37:00,
2013-08-28 02:42:00,51.7,47.0,22.47,WSW,247,5.6,9.0,84,0.00,,,0.00,Rainwise IP-100,2013-08-28 08:42:00,
2013-08-28 02:47:00,51.4,47.0,22.47,SW,225,6.8,9.0,85,0.00,,,0.00,Rainwise IP-100,2013-08-28 08:47:00,
2013-08-28 02:52:00,51.1,47.0,22.47,SSW,202,8.6,9.0,86,0.00,,,0.00,Rainwise IP-100,2013-08-28 08:52:00,
2013-08-28 02:58:00,51.0,47.0,22.47,SSW,202,9.3,11.0,86,0.00,,,0.00,Rainwise IP-100,2013-08-28 08:58:00,
2013-08-28 03:03:00,51.0,47.0,22.47,WSW,247,4.2,12.0,87,0.00,,,0.00,Rainwise IP-100,2013-08-28 09:03:00,
2013-08-28 03:08:00,51.0,47.0,22.47,SSW,202,7.7,11.0,86,0.00,,,0.00,Rainwise IP-100,2013-08-28 09:08:00,
2013-08-28 03:13:00,51.2,47.0,22.47,SSW,202,6.3,10.0,86,0.00,,,0.00,Rainwise IP-100,2013-08-28 09:13:00,
2013-08-28 03:18:00,51.5,47.0,22.47,SSW,202,8.4,12.0,85,0.00,,,0.00,Rainwise IP-100,2013-08-28 09:18:00,
2013-08-28 03:23:00,51.8,47.0,22.47,SW,225,6.5,10.0,84,0.00,,,0.00,Rainwise IP-100,2013-08-28 09:23:00,
2013-08-28 03:28:00,52.1,47.0,22.47,SSW,202,8.6,11.0,84,0.00,,,0.00,Rainwise IP-100,2013-08-28 09:28:00,
2013-08-28 03:33:00,52.3,47.0,22.47,WSW,247,8.4,11.0,84,0.00,,,0.00,Rainwise IP-100,2013-08-28 09:33:00,
2013-08-28 03:34:00,52.3,47.0,22.47,WSW,247,7.9,11.0,83,0.00,,,0.00,Rainwise IP-100,2013-08-28 09:34:00,
2013-08-28 03:39:00,52.0,47.0,22.47,WSW,247,7.5,11.0,83,0.00,,,0.00,Rainwise IP-100,2013-08-28 09:39:00,
2013-08-28 03:44:00,51.0,47.0,22.47,SSW,202,6.3,11.0,84,0.00,,,0.00,Rainwise IP-100,2013-08-28 09:44:00,
2013-08-28 03:49:00,50.5,47.0,22.47,WSW,247,6.5,9.0,86,0.00,,,0.00,Rainwise IP-100,2013-08-28 09:49:00,
2013-08-28 03:54:00,50.2,46.0,22.47,West,270,9.6,10.0,86,0.00,,,0.00,Rainwise IP-100,2013-08-28 09:54:00,
2013-08-28 04:00:00,49.7,46.0,22.47,SSW,202,9.1,10.0,87,0.00,,,0.00,Rainwise IP-100,2013-08-28 10:00:00,
2013-08-28 04:05:00,49.6,46.0,22.47,WSW,247,7.7,11.0,87,0.00,,,0.00,Rainwise IP-100,2013-08-28 10:05:00,
2013-08-28 04:10:00,49.7,47.0,22.47,SW,225,12.1,12.1,88,0.00,,,0.00,Rainwise IP-100,2013-08-28 10:10:00,
2013-08-28 04:15:00,49.8,47.0,22.47,SW,225,12.8,12.8,88,0.00,,,0.00,Rainwise IP-100,2013-08-28 10:15:00,
2013-08-28 04:20:00,49.9,46.0,22.48,SSW,202,10.5,15.0,87,0.00,,,0.00,Rainwise IP-100,2013-08-28 10:20:00,
2013-08-28 04:25:00,49.7,46.0,22.47,WSW,247,5.8,11.0,87,0.00,,,0.00,Rainwise IP-100,2013-08-28 10:25:00,
2013-08-28 04:30:00,49.3,46.0,22.48,WSW,247,6.1,8.0,88,0.00,,,0.00,Rainwise IP-100,2013-08-28 10:30:00,
2013-08-28 04:35:00,48.9,46.0,22.47,SW,225,4.4,10.0,88,0.00,,,0.00,Rainwise IP-100,2013-08-28 10:35:00,
2013-08-28 04:40:00,48.7,46.0,22.47,WSW,247,6.8,11.0,89,0.00,,,0.00,Rainwise IP-100,2013-08-28 10:40:00,
2013-08-28 04:45:00,48.9,47.0,22.46,SSW,202,11.2,14.0,90,0.00,,,0.00,Rainwise IP-100,2013-08-28 10:45:00,
2013-08-28 04:50:00,49.7,47.0,22.47,SW,225,8.6,16.0,89,0.00,,,0.00,Rainwise IP-100,2013-08-28 10:50:00,
2013-08-28 04:55:00,49.8,46.0,22.47,SW,225,9.6,17.0,87,0.00,,,0.00,Rainwise IP-100,2013-08-28 10:55:00,
2013-08-28 05:01:00,49.2,46.0,22.47,SW,225,7.7,11.0,88,0.00,,,0.00,Rainwise IP-100,2013-08-28 11:01:00,
2013-08-28 05:06:00,48.9,46.0,22.47,SSW,202,10.0,12.0,89,0.00,,,0.00,Rainwise IP-100,2013-08-28 11:06:00,
2013-08-28 05:11:00,49.0,46.0,22.47,SSE,157,9.6,13.0,89,0.00,,,0.00,Rainwise IP-100,2013-08-28 11:11:00,
2013-08-28 05:16:00,49.2,46.0,22.47,SW,225,11.0,13.0,89,0.00,,,0.00,Rainwise IP-100,2013-08-28 11:16:00,
2013-08-28 05:21:00,49.2,46.0,22.47,West,270,8.9,12.0,88,0.00,,,0.00,Rainwise IP-100,2013-08-28 11:21:00,
2013-08-28 05:26:00,49.0,46.0,22.47,WSW,247,11.9,12.0,88,0.00,,,0.00,Rainwise IP-100,2013-08-28 11:26:00,
2013-08-28 05:31:00,49.4,46.0,22.47,WSW,247,9.1,14.0,88,0.00,,,0.00,Rainwise IP-100,2013-08-28 11:31:00,
2013-08-28 05:36:00,49.5,47.0,22.47,West,270,5.4,12.0,88,0.00,,,0.00,Rainwise IP-100,2013-08-28 11:36:00,
2013-08-28 05:41:00,48.5,46.0,22.47,SW,225,11.0,14.0,88,0.00,,,0.00,Rainwise IP-100,2013-08-28 11:41:00,
2013-08-28 05:46:00,48.1,45.0,22.47,WSW,247,8.6,12.0,88,0.00,,,0.00,Rainwise IP-100,2013-08-28 11:46:00,
2013-08-28 05:51:00,47.7,45.0,22.47,WSW,247,7.5,10.0,90,0.00,,,0.00,Rainwise IP-100,2013-08-28 11:51:00,
2013-08-28 05:56:00,47.5,45.0,22.48,WNW,292,5.6,9.0,90,0.00,,,0.00,Rainwise IP-100,2013-08-28 11:56:00,
2013-08-28 06:02:00,47.8,45.0,22.47,SSW,202,6.1,11.0,91,0.00,,,0.00,Rainwise IP-100,2013-08-28 12:02:00,
2013-08-28 06:07:00,48.2,46.0,22.48,WSW,247,6.1,13.0,90,0.00,,,0.00,Rainwise IP-100,2013-08-28 12:07:00,
2013-08-28 06:12:00,48.6,47.0,22.48,West,270,11.0,14.0,90,0.00,,,0.00,Rainwise IP-100,2013-08-28 12:12:00,
2013-08-28 06:17:00,48.2,45.0,22.48,WSW,247,8.9,13.0,89,0.00,,,0.00,Rainwise IP-100,2013-08-28 12:17:00,
2013-08-28 06:22:00,47.4,44.0,22.48,WSW,247,5.1,12.0,89,0.00,,,0.00,Rainwise IP-100,2013-08-28 12:22:00,
2013-08-28 06:27:00,47.1,44.0,22.48,SSW,202,11.4,11.4,90,0.00,,,0.00,Rainwise IP-100,2013-08-28 12:27:00,
2013-08-28 06:32:00,47.1,44.0,22.48,SSW,202,10.3,12.0,91,0.00,,,0.00,Rainwise IP-100,2013-08-28 12:32:00,
2013-08-28 06:37:00,47.1,44.0,22.48,SW,225,5.1,12.0,92,0.00,,,0.00,Rainwise IP-100,2013-08-28 12:37:00,
2013-08-28 06:42:00,47.3,44.0,22.48,SW,225,10.3,12.0,91,0.00,,,0.00,Rainwise IP-100,2013-08-28 12:42:00,
2013-08-28 06:47:00,47.7,45.0,22.48,WSW,247,10.5,12.0,91,0.00,,,0.00,Rainwise IP-100,2013-08-28 12:47:00,
2013-08-28 06:52:00,48.0,46.0,22.49,WSW,247,11.0,14.0,90,0.00,,,0.00,Rainwise IP-100,2013-08-28 12:52:00,
2013-08-28 06:57:00,47.9,46.0,22.49,SSW,202,7.2,13.0,90,0.00,,,0.00,Rainwise IP-100,2013-08-28 12:57:00,
2013-08-28 07:03:00,47.8,45.0,22.49,SSW,202,11.2,12.0,90,0.00,,,0.00,Rainwise IP-100,2013-08-28 13:03:00,
2013-08-28 07:08:00,47.9,46.0,22.49,SW,225,10.3,13.0,90,0.00,,,0.00,Rainwise IP-100,2013-08-28 13:08:00,
2013-08-28 07:13:00,47.8,45.0,22.49,SSW,202,8.9,11.0,90,0.00,,,0.00,Rainwise IP-100,2013-08-28 13:13:00,
2013-08-28 07:18:00,47.6,45.0,22.49,SW,225,6.3,11.0,90,0.00,,,0.00,Rainwise IP-100,2013-08-28 13:18:00,
2013-08-28 07:23:00,47.8,45.0,22.49,SW,225,9.3,11.0,90,0.00,,,0.00,Rainwise IP-100,2013-08-28 13:23:00,
2013-08-28 07:28:00,48.2,45.0,22.49,WSW,247,7.9,14.0,89,0.00,,,0.00,Rainwise IP-100,2013-08-28 13:28:00,
2013-08-28 07:33:00,48.5,46.0,22.50,SSW,202,7.9,12.0,88,0.00,,,0.00,Rainwise IP-100,2013-08-28 13:33:00,
2013-08-28 07:38:00,48.7,46.0,22.50,SSW,202,6.5,10.0,88,0.00,,,0.00,Rainwise IP-100,2013-08-28 13:38:00,
2013-08-28 07:43:00,49.0,46.0,22.50,SSW,202,5.6,10.0,88,0.00,,,0.00,Rainwise IP-100,2013-08-28 13:43:00,
2013-08-28 07:48:00,49.1,45.0,22.50,WSW,247,8.4,10.0,87,0.00,,,0.00,Rainwise IP-100,2013-08-28 13:48:00,
2013-08-28 07:53:00,48.8,45.0,22.50,SW,225,9.8,10.0,87,0.00,,,0.00,Rainwise IP-100,2013-08-28 13:53:00,
2013-08-28 07:58:00,49.2,46.0,22.50,SW,225,7.0,10.0,88,0.00,,,0.00,Rainwise IP-100,2013-08-28 13:58:00,
2013-08-28 08:04:00,49.9,46.0,22.50,SSW,202,6.1,8.0,87,0.00,,,0.00,Rainwise IP-100,2013-08-28 14:04:00,
2013-08-28 08:09:00,50.4,47.0,22.50,SSW,202,7.2,8.0,86,0.00,,,0.00,Rainwise IP-100,2013-08-28 14:09:00,
2013-08-28 08:14:00,51.1,47.0,22.50,SW,225,6.8,8.0,85,0.00,,,0.00,Rainwise IP-100,2013-08-28 14:14:00,
2013-08-28 08:19:00,51.9,47.0,22.50,SSW,202,7.5,8.0,83,0.00,,,0.00,Rainwise IP-100,2013-08-28 14:19:00,
2013-08-28 08:24:00,52.6,47.0,22.50,SSW,202,4.9,9.0,82,0.00,,,0.00,Rainwise IP-100,2013-08-28 14:24:00,
2013-08-28 08:29:00,53.4,47.0,22.51,SW,225,5.1,6.0,80,0.00,,,0.00,Rainwise IP-100,2013-08-28 14:29:00,
2013-08-28 08:34:00,54.1,47.0,22.51,WSW,247,6.1,8.0,78,0.00,,,0.00,Rainwise IP-100,2013-08-28 14:34:00,
2013-08-28 08:39:00,54.4,48.0,22.51,SW,225,6.5,7.0,78,0.00,,,0.00,Rainwise IP-100,2013-08-28 14:39:00,
2013-08-28 08:44:00,54.9,48.0,22.50,SSW,202,7.7,8.0,77,0.00,,,0.00,Rainwise IP-100,2013-08-28 14:44:00,
2013-08-28 08:49:00,55.8,48.0,22.50,SSW,202,7.7,7.7,76,0.00,,,0.00,Rainwise IP-100,2013-08-28 14:49:00,
2013-08-28 08:54:00,56.3,48.0,22.50,SSW,202,5.4,8.0,75,0.00,,,0.00,Rainwise IP-100,2013-08-28 14:54:00,
2013-08-28 08:59:00,56.7,48.0,22.50,SSW,202,6.8,8.0,74,0.00,,,0.00,Rainwise IP-100,2013-08-28 14:59:00,
2013-08-28 09:05:00,57.3,48.0,22.50,SW,225,6.3,9.0,72,0.00,,,0.00,Rainwise IP-100,2013-08-28 15:05:00,
2013-08-28 09:10:00,57.6,48.0,22.50,SW,225,3.0,8.0,71,0.00,,,0.00,Rainwise IP-100,2013-08-28 15:10:00,
2013-08-28 09:15:00,58.1,48.0,22.50,NNW,337,6.3,7.0,70,0.00,,,0.00,Rainwise IP-100,2013-08-28 15:15:00,
2013-08-28 09:20:00,59.0,48.0,22.50,WSW,247,4.0,9.0,68,0.00,,,0.00,Rainwise IP-100,2013-08-28 15:20:00,
2013-08-28 09:25:00,59.7,48.0,22.50,SW,225,3.0,7.0,66,0.00,,,0.00,Rainwise IP-100,2013-08-28 15:25:00,
2013-08-28 09:30:00,60.6,48.0,22.50,SSW,202,6.5,8.0,65,0.00,,,0.00,Rainwise IP-100,2013-08-28 15:30:00,
2013-08-28 09:35:00,61.1,49.0,22.50,WSW,247,4.4,7.0,65,0.00,,,0.00,Rainwise IP-100,2013-08-28 15:35:00,
2013-08-28 09:40:00,61.3,49.0,22.50,SSW,202,3.3,5.0,64,0.00,,,0.00,Rainwise IP-100,2013-08-28 15:40:00,
2013-08-28 09:45:00,62.1,49.0,22.50,WSW,247,3.0,6.0,63,0.00,,,0.00,Rainwise IP-100,2013-08-28 15:45:00,
2013-08-28 09:51:00,62.3,48.0,22.50,SW,225,4.0,7.0,61,0.00,,,0.00,Rainwise IP-100,2013-08-28 15:51:00,
2013-08-28 09:56:00,62.4,48.0,22.49,NNW,337,8.9,9.0,60,0.00,,,0.00,Rainwise IP-100,2013-08-28 15:56:00,
2013-08-28 10:01:00,62.7,48.0,22.49,WSW,247,7.0,10.0,59,0.00,,,0.00,Rainwise IP-100,2013-08-28 16:01:00,
2013-08-28 10:07:00,63.3,48.0,22.49,NNW,337,4.7,10.0,59,0.00,,,0.00,Rainwise IP-100,2013-08-28 16:07:00,
2013-08-28 10:12:00,64.0,49.0,22.49,NNW,337,7.7,7.7,58,0.00,,,0.00,Rainwise IP-100,2013-08-28 16:12:00,
2013-08-28 10:17:00,65.0,49.0,22.49,North,0,8.2,9.0,56,0.00,,,0.00,Rainwise IP-100,2013-08-28 16:17:00,
2013-08-28 10:22:00,65.7,49.0,22.49,North,0,11.2,11.2,55,0.00,,,0.00,Rainwise IP-100,2013-08-28 16:22:00,
2013-08-28 10:27:00,67.3,50.0,22.49,NNE,22,4.4,9.0,53,0.00,,,0.00,Rainwise IP-100,2013-08-28 16:27:00,
2013-08-28 10:32:00,68.3,49.0,22.49,NNE,22,6.5,9.0,51,0.00,,,0.00,Rainwise IP-100,2013-08-28 16:32:00,
2013-08-28 10:37:00,69.2,49.0,22.49,NNE,22,5.8,7.0,49,0.00,,,0.00,Rainwise IP-100,2013-08-28 16:37:00,
2013-08-28 10:42:00,70.1,49.0,22.49,North,0,1.6,6.0,47,0.00,,,0.00,Rainwise IP-100,2013-08-28 16:42:00,
2013-08-28 10:47:00,70.6,49.0,22.49,NNE,22,2.3,7.0,47,0.00,,,0.00,Rainwise IP-100,2013-08-28 16:47:00,
2013-08-28 10:52:00,70.7,48.0,22.49,ENE,67,6.5,7.0,45,0.00,,,0.00,Rainwise IP-100,2013-08-28 16:52:00,
2013-08-28 10:57:00,70.1,47.0,22.49,East,90,2.3,7.0,45,0.00,,,0.00,Rainwise IP-100,2013-08-28 16:57:00,
2013-08-28 11:02:00,70.5,48.0,22.48,ENE,67,6.5,8.0,45,0.00,,,0.00,Rainwise IP-100,2013-08-28 17:02:00,
2013-08-28 11:08:00,70.5,48.0,22.48,ENE,67,5.8,8.0,45,0.00,,,0.00,Rainwise IP-100,2013-08-28 17:08:00,
2013-08-28 11:13:00,70.5,48.0,22.48,NNE,22,3.7,10.0,45,0.00,,,0.00,Rainwise IP-100,2013-08-28 17:13:00,
2013-08-28 11:18:00,70.9,47.0,22.48,East,90,8.2,11.0,44,0.00,,,0.00,Rainwise IP-100,2013-08-28 17:18:00,
2013-08-28 11:23:00,71.1,47.0,22.48,NE,45,5.1,13.0,44,0.00,,,0.00,Rainwise IP-100,2013-08-28 17:23:00,
2013-08-28 11:28:00,71.2,48.0,22.48,East,90,10.7,12.0,44,0.00,,,0.00,Rainwise IP-100,2013-08-28 17:28:00,
2013-08-28 11:33:00,71.3,48.0,22.48,East,90,4.2,12.0,44,0.00,,,0.00,Rainwise IP-100,2013-08-28 17:33:00,
2013-08-28 11:38:00,71.4,48.0,22.48,East,90,8.6,12.0,44,0.00,,,0.00,Rainwise IP-100,2013-08-28 17:38:00,
2013-08-28 11:43:00,71.5,48.0,22.48,ESE,112,5.4,11.0,43,0.00,,,0.00,Rainwise IP-100,2013-08-28 17:43:00,
2013-08-28 11:48:00,71.8,48.0,22.48,East,90,7.5,11.0,43,0.00,,,0.00,Rainwise IP-100,2013-08-28 17:48:00,
2013-08-28 11:53:00,72.1,47.0,22.48,East,90,9.6,10.0,42,0.00,,,0.00,Rainwise IP-100,2013-08-28 17:53:00,
2013-08-28 11:58:00,72.2,47.0,22.48,ENE,67,6.8,9.0,41,0.00,,,0.00,Rainwise IP-100,2013-08-28 17:58:00,
2013-08-28 12:03:00,72.5,47.0,22.47,East,90,3.0,12.0,41,0.00,,,0.00,Rainwise IP-100,2013-08-28 18:03:00,
2013-08-28 12:09:00,72.4,47.0,22.47,ESE,112,6.3,12.0,41,0.00,,,0.00,Rainwise IP-100,2013-08-28 18:09:00,
2013-08-28 12:14:00,72.2,47.0,22.47,East,90,13.3,13.3,41,0.00,,,0.00,Rainwise IP-100,2013-08-28 18:14:00,
2013-08-28 12:19:00,72.2,47.0,22.47,ENE,67,7.9,13.0,40,0.00,,,0.00,Rainwise IP-100,2013-08-28 18:19:00,
2013-08-28 12:24:00,73.0,47.0,22.47,East,90,8.4,10.0,40,0.00,,,0.00,Rainwise IP-100,2013-08-28 18:24:00,
2013-08-28 12:29:00,73.8,48.0,22.47,ENE,67,5.6,11.0,40,0.00,,,0.00,Rainwise IP-100,2013-08-28 18:29:00,
2013-08-28 12:34:00,74.1,47.0,22.47,ENE,67,13.1,13.1,39,0.00,,,0.00,Rainwise IP-100,2013-08-28 18:34:00,
2013-08-28 12:39:00,74.0,47.0,22.47,ENE,67,11.2,13.0,39,0.00,,,0.00,Rainwise IP-100,2013-08-28 18:39:00,
2013-08-28 12:44:00,73.9,47.0,22.47,ENE,67,4.0,15.0,39,0.00,,,0.00,Rainwise IP-100,2013-08-28 18:44:00,
2013-08-28 12:49:00,74.2,47.0,22.46,ESE,112,8.9,11.0,38,0.00,,,0.00,Rainwise IP-100,2013-08-28 18:49:00,
2013-08-28 12:54:00,74.6,46.0,22.46,ESE,112,8.9,11.0,36,0.00,,,0.00,Rainwise IP-100,2013-08-28 18:54:00,
2013-08-28 12:59:00,74.9,45.0,22.46,East,90,6.1,10.0,34,0.00,,,0.00,Rainwise IP-100,2013-08-28 18:59:00,
2013-08-28 13:04:00,75.8,43.0,22.46,SSE,157,3.5,11.0,32,0.00,,,0.00,Rainwise IP-100,2013-08-28 19:04:00,
2013-08-28 13:10:00,76.0,41.0,22.46,ESE,112,6.8,10.0,29,0.00,,,0.00,Rainwise IP-100,2013-08-28 19:10:00,
2013-08-28 13:15:00,75.6,40.0,22.46,East,90,7.5,13.0,28,0.00,,,0.00,Rainwise IP-100,2013-08-28 19:15:00,
2013-08-28 13:20:00,75.6,40.0,22.45,East,90,7.2,11.0,28,0.00,,,0.00,Rainwise IP-100,2013-08-28 19:20:00,
2013-08-28 13:25:00,75.9,40.0,22.45,East,90,11.2,14.0,28,0.00,,,0.00,Rainwise IP-100,2013-08-28 19:25:00,
2013-08-28 13:30:00,75.7,38.0,22.45,ENE,67,7.0,17.0,26,0.00,,,0.00,Rainwise IP-100,2013-08-28 19:30:00,
2013-08-28 13:35:00,75.8,37.0,22.45,East,90,8.2,13.0,25,0.00,,,0.00,Rainwise IP-100,2013-08-28 19:35:00,
2013-08-28 13:40:00,76.5,38.0,22.45,East,90,9.8,11.0,25,0.00,,,0.00,Rainwise IP-100,2013-08-28 19:40:00,
2013-08-28 13:45:00,76.6,38.0,22.45,SE,135,3.7,13.0,25,0.00,,,0.00,Rainwise IP-100,2013-08-28 19:45:00,
2013-08-28 13:50:00,76.7,39.0,22.45,NNE,22,3.5,11.0,26,0.00,,,0.00,Rainwise IP-100,2013-08-28 19:50:00,
2013-08-28 13:55:00,77.2,38.0,22.45,ENE,67,7.7,12.0,24,0.00,,,0.00,Rainwise IP-100,2013-08-28 19:55:00,
2013-08-28 14:00:00,77.0,38.0,22.45,East,90,7.9,15.0,24,0.00,,,0.00,Rainwise IP-100,2013-08-28 20:00:00,
2013-08-28 14:05:00,76.5,39.0,22.44,ENE,67,8.2,17.0,26,0.00,,,0.00,Rainwise IP-100,2013-08-28 20:05:00,
2013-08-28 14:11:00,76.6,40.0,22.44,East,90,14.0,14.0,27,0.00,,,0.00,Rainwise IP-100,2013-08-28 20:11:00,
2013-08-28 14:16:00,77.1,39.0,22.44,ENE,67,5.1,14.0,26,0.00,,,0.00,Rainwise IP-100,2013-08-28 20:16:00,
2013-08-28 14:21:00,77.4,41.0,22.44,ENE,67,13.5,14.0,27,0.00,,,0.00,Rainwise IP-100,2013-08-28 20:21:00,
2013-08-28 14:26:00,77.5,41.0,22.44,ENE,67,6.5,14.0,27,0.00,,,0.00,Rainwise IP-100,2013-08-28 20:26:00,
2013-08-28 14:31:00,77.4,42.0,22.44,East,90,14.9,17.0,28,0.00,,,0.00,Rainwise IP-100,2013-08-28 20:31:00,
2013-08-28 14:36:00,77.0,41.0,22.44,ENE,67,11.7,16.0,28,0.00,,,0.00,Rainwise IP-100,2013-08-28 20:36:00,
2013-08-28 14:41:00,76.7,41.0,22.43,ENE,67,4.7,17.0,28,0.00,,,0.00,Rainwise IP-100,2013-08-28 20:41:00,
2013-08-28 14:46:00,76.9,41.0,22.43,ESE,112,7.0,15.0,28,0.00,,,0.00,Rainwise IP-100,2013-08-28 20:46:00,
2013-08-28 14:51:00,77.1,41.0,22.43,East,90,11.0,14.0,28,0.00,,,0.00,Rainwise IP-100,2013-08-28 20:51:00,
2013-08-28 14:56:00,76.9,41.0,22.43,East,90,13.1,13.1,28,0.00,,,0.00,Rainwise IP-100,2013-08-28 20:56:00,
2013-08-28 15:01:00,76.3,40.0,22.43,East,90,6.5,15.0,28,0.00,,,0.00,Rainwise IP-100,2013-08-28 21:01:00,
2013-08-28 15:06:00,76.1,41.0,22.43,NE,45,5.8,12.0,29,0.00,,,0.00,Rainwise IP-100,2013-08-28 21:06:00,
2013-08-28 15:12:00,76.6,42.0,22.43,East,90,13.8,14.0,29,0.00,,,0.00,Rainwise IP-100,2013-08-28 21:12:00,
2013-08-28 15:17:00,77.0,41.0,22.43,East,90,11.2,15.0,28,0.00,,,0.00,Rainwise IP-100,2013-08-28 21:17:00,
2013-08-28 15:22:00,77.1,40.0,22.43,ENE,67,4.9,13.0,27,0.00,,,0.00,Rainwise IP-100,2013-08-28 21:22:00,
2013-08-28 15:27:00,77.3,41.0,22.43,ESE,112,10.7,13.0,27,0.00,,,0.00,Rainwise IP-100,2013-08-28 21:27:00,
2013-08-28 15:32:00,76.9,39.0,22.43,ENE,67,10.0,17.0,26,0.00,,,0.00,Rainwise IP-100,2013-08-28 21:32:00,
2013-08-28 15:37:00,76.1,38.0,22.42,ENE,67,5.6,13.0,26,0.00,,,0.00,Rainwise IP-100,2013-08-28 21:37:00,
2013-08-28 15:42:00,75.7,38.0,22.43,East,90,1.6,10.0,26,0.00,,,0.00,Rainwise IP-100,2013-08-28 21:42:00,
2013-08-28 15:47:00,75.4,39.0,22.43,ESE,112,3.7,10.0,27,0.00,,,0.00,Rainwise IP-100,2013-08-28 21:47:00,
2013-08-28 15:52:00,75.2,38.0,22.42,ENE,67,4.4,9.0,26,0.00,,,0.00,Rainwise IP-100,2013-08-28 21:52:00,
2013-08-28 15:57:00,75.0,39.0,22.43,East,90,4.2,8.0,27,0.00,,,0.00,Rainwise IP-100,2013-08-28 21:57:00,
2013-08-28 16:02:00,74.9,40.0,22.42,East,90,4.2,6.0,28,0.00,,,0.00,Rainwise IP-100,2013-08-28 22:02:00,
2013-08-28 16:07:00,74.9,40.0,22.43,ESE,112,5.1,6.0,28,0.00,,,0.00,Rainwise IP-100,2013-08-28 22:07:00,
2013-08-28 16:13:00,75.3,40.0,22.43,ENE,67,5.8,7.0,28,0.00,,,0.00,Rainwise IP-100,2013-08-28 22:13:00,
2013-08-28 16:18:00,76.0,38.0,22.43,East,90,6.1,8.0,26,0.00,,,0.00,Rainwise IP-100,2013-08-28 22:18:00,
2013-08-28 16:23:00,76.9,39.0,22.42,ESE,112,3.5,7.0,25,0.00,,,0.00,Rainwise IP-100,2013-08-28 22:23:00,
2013-08-28 16:28:00,77.7,37.0,22.42,East,90,4.4,8.0,23,0.00,,,0.00,Rainwise IP-100,2013-08-28 22:28:00,
2013-08-28 16:33:00,78.1,36.0,22.42,SE,135,4.2,7.0,22,0.00,,,0.00,Rainwise IP-100,2013-08-28 22:33:00,
2013-08-28 16:38:00,78.1,35.0,22.43,ESE,112,7.5,10.0,21,0.00,,,0.00,Rainwise IP-100,2013-08-28 22:38:00,
2013-08-28 16:43:00,77.8,35.0,22.42,ENE,67,7.5,11.0,21,0.00,,,0.00,Rainwise IP-100,2013-08-28 22:43:00,
2013-08-28 16:48:00,77.9,36.0,22.42,ENE,67,4.7,9.0,22,0.00,,,0.00,Rainwise IP-100,2013-08-28 22:48:00,
2013-08-28 16:53:00,78.5,37.0,22.42,SW,225,1.9,8.0,22,0.00,,,0.00,Rainwise IP-100,2013-08-28 22:53:00,
2013-08-28 16:58:00,79.7,42.0,22.42,SW,225,5.6,14.0,26,0.00,,,0.00,Rainwise IP-100,2013-08-28 22:58:00,
2013-08-28 17:03:00,80.0,46.0,22.42,SW,225,9.8,11.0,30,0.00,,,0.00,Rainwise IP-100,2013-08-28 23:03:00,
2013-08-28 17:08:00,78.7,45.0,22.42,WSW,247,6.5,14.0,30,0.00,,,0.00,Rainwise IP-100,2013-08-28 23:08:00,
2013-08-28 17:14:00,77.7,45.0,22.42,SSW,202,5.1,10.0,31,0.00,,,0.00,Rainwise IP-100,2013-08-28 23:14:00,
2013-08-28 17:19:00,77.8,46.0,22.42,SW,225,8.2,12.0,32,0.00,,,0.00,Rainwise IP-100,2013-08-28 23:19:00,
2013-08-28 17:24:00,77.8,47.0,22.42,SW,225,9.3,10.0,33,0.00,,,0.00,Rainwise IP-100,2013-08-28 23:24:00,
2013-08-28 17:29:00,77.3,46.0,22.42,SW,225,7.5,12.0,33,0.00,,,0.00,Rainwise IP-100,2013-08-28 23:29:00,
2013-08-28 17:34:00,76.7,46.0,22.42,WSW,247,12.4,12.4,33,0.00,,,0.00,Rainwise IP-100,2013-08-28 23:34:00,
2013-08-28 17:39:00,76.2,46.0,22.43,SW,225,9.3,12.0,34,0.00,,,0.00,Rainwise IP-100,2013-08-28 23:39:00,
2013-08-28 17:44:00,75.9,46.0,22.43,WSW,247,5.8,11.0,34,0.00,,,0.00,Rainwise IP-100,2013-08-28 23:44:00,
2013-08-28 17:49:00,76.0,46.0,22.43,SSW,202,7.2,10.0,34,0.00,,,0.00,Rainwise IP-100,2013-08-28 23:49:00,
2013-08-28 17:54:00,75.5,45.0,22.42,WSW,247,7.0,12.0,34,0.00,,,0.00,Rainwise IP-100,2013-08-28 23:54:00,
2013-08-28 17:59:00,74.9,46.0,22.43,SSW,202,5.8,9.0,35,0.00,,,0.00,Rainwise IP-100,2013-08-28 23:59:00,
2013-08-28 18:04:00,74.7,46.0,22.42,SSW,202,7.2,8.0,36,0.00,,,0.00,Rainwise IP-100,2013-08-29 00:04:00,
2013-08-28 18:09:00,74.4,47.0,22.43,SSW,202,6.5,8.0,37,0.00,,,0.00,Rainwise IP-100,2013-08-29 00:09:00,
2013-08-28 18:15:00,74.3,46.0,22.43,SSW,202,5.6,7.0,36,0.00,,,0.00,Rainwise IP-100,2013-08-29 00:15:00,
2013-08-28 18:20:00,74.0,45.0,22.43,WSW,247,5.6,11.0,35,0.00,,,0.00,Rainwise IP-100,2013-08-29 00:20:00,
2013-08-28 18:25:00,73.4,45.0,22.43,SSW,202,6.5,10.0,36,0.00,,,0.00,Rainwise IP-100,2013-08-29 00:25:00,
2013-08-28 18:30:00,72.7,45.0,22.43,SW,225,5.6,12.0,37,0.00,,,0.00,Rainwise IP-100,2013-08-29 00:30:00,
2013-08-28 18:35:00,71.9,45.0,22.44,West,270,8.9,13.0,38,0.00,,,0.00,Rainwise IP-100,2013-08-29 00:35:00,
2013-08-28 18:40:00,71.4,45.0,22.44,SW,225,8.2,12.0,39,0.00,,,0.00,Rainwise IP-100,2013-08-29 00:40:00,
2013-08-28 18:45:00,71.1,45.0,22.44,SSW,202,7.7,8.0,40,0.00,,,0.00,Rainwise IP-100,2013-08-29 00:45:00,
2013-08-28 18:50:00,70.6,46.0,22.44,SW,225,6.1,11.0,41,0.00,,,0.00,Rainwise IP-100,2013-08-29 00:50:00,
2013-08-28 18:55:00,70.0,46.0,22.44,SW,225,6.5,9.0,42,0.00,,,0.00,Rainwise IP-100,2013-08-29 00:55:00,
2013-08-28 19:00:00,69.7,46.0,22.45,WSW,247,4.7,7.0,43,0.00,,,0.00,Rainwise IP-100,2013-08-29 01:00:00,
2013-08-28 19:05:00,69.4,46.0,22.45,SW,225,3.5,8.0,43,0.00,,,0.00,Rainwise IP-100,2013-08-29 01:05:00,
2013-08-28 19:10:00,69.1,46.0,22.45,SW,225,3.0,6.0,44,0.00,,,0.00,Rainwise IP-100,2013-08-29 01:10:00,
2013-08-28 19:16:00,68.8,46.0,22.46,SW,225,0.0,4.0,44,0.00,,,0.00,Rainwise IP-100,2013-08-29 01:16:00,
2013-08-28 19:21:00,68.5,47.0,22.45,SW,225,4.2,5.0,45,0.00,,,0.00,Rainwise IP-100,2013-08-29 01:21:00,
2013-08-28 19:26:00,68.0,46.0,22.45,WSW,247,3.3,5.0,45,0.00,,,0.00,Rainwise IP-100,2013-08-29 01:26:00,
2013-08-28 19:31:00,67.2,46.0,22.45,WSW,247,3.7,4.0,46,0.00,,,0.00,Rainwise IP-100,2013-08-29 01:31:00,
2013-08-28 19:36:00,66.7,47.0,22.46,WSW,247,5.4,6.0,48,0.00,,,0.00,Rainwise IP-100,2013-08-29 01:36:00,
2013-08-28 19:41:00,66.5,47.0,22.46,WSW,247,5.6,6.0,48,0.00,,,0.00,Rainwise IP-100,2013-08-29 01:41:00,
2013-08-28 19:46:00,66.2,47.0,22.46,WSW,247,5.6,7.0,49,0.00,,,0.00,Rainwise IP-100,2013-08-29 01:46:00,
2013-08-28 19:51:00,66.0,46.0,22.46,SSW,202,6.5,6.5,49,0.00,,,0.00,Rainwise IP-100,2013-08-29 01:51:00,
2013-08-28 19:56:00,65.7,47.0,22.46,SW,225,4.0,7.0,50,0.00,,,0.00,Rainwise IP-100,2013-08-29 01:56:00,
2013-08-28 20:01:00,65.4,47.0,22.46,SW,225,3.7,10.0,50,0.00,,,0.00,Rainwise IP-100,2013-08-29 02:01:00,
2013-08-28 20:06:00,65.3,47.0,22.46,WSW,247,4.4,6.0,51,0.00,,,0.00,Rainwise IP-100,2013-08-29 02:06:00,
2013-08-28 20:11:00,65.0,47.0,22.46,WSW,247,4.9,5.0,52,0.00,,,0.00,Rainwise IP-100,2013-08-29 02:11:00,
2013-08-28 20:17:00,64.1,47.0,22.47,WSW,247,5.8,6.0,53,0.00,,,0.00,Rainwise IP-100,2013-08-29 02:17:00,
2013-08-28 20:22:00,63.6,47.0,22.46,WSW,247,7.5,8.0,55,0.00,,,0.00,Rainwise IP-100,2013-08-29 02:22:00,
2013-08-28 20:27:00,63.5,47.0,22.47,SW,225,6.1,10.0,55,0.00,,,0.00,Rainwise IP-100,2013-08-29 02:27:00,
2013-08-28 20:32:00,63.3,47.0,22.47,WSW,247,7.9,9.0,56,0.00,,,0.00,Rainwise IP-100,2013-08-29 02:32:00,
2013-08-28 20:37:00,62.9,47.0,22.47,WSW,247,4.7,10.0,56,0.00,,,0.00,Rainwise IP-100,2013-08-29 02:37:00,
2013-08-28 20:42:00,62.5,47.0,22.47,SSW,202,7.2,11.0,57,0.00,,,0.00,Rainwise IP-100,2013-08-29 02:42:00,
2013-08-28 20:47:00,62.2,47.0,22.47,SSW,202,7.7,11.0,58,0.00,,,0.00,Rainwise IP-100,2013-08-29 02:47:00,
2013-08-28 20:52:00,61.9,47.0,22.48,SW,225,6.3,11.0,59,0.00,,,0.00,Rainwise IP-100,2013-08-29 02:52:00,
2013-08-28 20:57:00,61.8,47.0,22.49,WSW,247,4.0,10.0,59,0.00,,,0.00,Rainwise IP-100,2013-08-29 02:57:00,
2013-08-28 21:02:00,61.7,47.0,22.48,WSW,247,7.2,9.0,60,0.00,,,0.00,Rainwise IP-100,2013-08-29 03:02:00,
2013-08-28 21:07:00,61.5,47.0,22.48,WSW,247,4.9,9.0,60,0.00,,,0.00,Rainwise IP-100,2013-08-29 03:07:00,
2013-08-28 21:12:00,61.3,47.0,22.49,WSW,247,5.1,7.0,61,0.00,,,0.00,Rainwise IP-100,2013-08-29 03:12:00,
2013-08-28 21:18:00,60.9,47.0,22.49,WSW,247,4.4,9.0,62,0.00,,,0.00,Rainwise IP-100,2013-08-29 03:18:00,
2013-08-28 21:23:00,60.5,47.0,22.49,WSW,247,7.0,9.0,63,0.00,,,0.00,Rainwise IP-100,2013-08-29 03:23:00,
2013-08-28 21:28:00,60.2,47.0,22.49,SSW,202,7.7,10.0,63,0.00,,,0.00,Rainwise IP-100,2013-08-29 03:28:00,
2013-08-28 21:33:00,60.1,47.0,22.49,WSW,247,7.0,11.0,62,0.00,,,0.00,Rainwise IP-100,2013-08-29 03:33:00,
2013-08-28 21:38:00,60.3,47.0,22.49,SSW,202,10.5,11.0,62,0.00,,,0.00,Rainwise IP-100,2013-08-29 03:38:00,
2013-08-28 21:43:00,60.4,47.0,22.49,SW,225,8.9,12.0,61,0.00,,,0.00,Rainwise IP-100,2013-08-29 03:43:00,
2013-08-28 21:48:00,60.4,47.0,22.49,SW,225,7.0,11.0,61,0.00,,,0.00,Rainwise IP-100,2013-08-29 03:48:00,
2013-08-28 21:53:00,60.3,47.0,22.49,WSW,247,7.7,10.0,61,0.00,,,0.00,Rainwise IP-100,2013-08-29 03:53:00,
2013-08-28 21:58:00,60.1,47.0,22.49,SW,225,6.8,14.0,61,0.00,,,0.00,Rainwise IP-100,2013-08-29 03:58:00,
2013-08-28 22:01:00,60.0,47.0,22.49,SW,225,9.3,12.0,61,0.00,,,0.00,Rainwise IP-100,2013-08-29 04:01:00,
2013-08-28 22:02:00,60.0,47.0,22.49,SW,225,10.7,12.0,61,0.00,,,0.00,Rainwise IP-100,2013-08-29 04:02:00,
2013-08-28 22:03:00,60.0,47.0,22.49,SSW,202,9.1,14.0,61,0.00,,,0.00,Rainwise IP-100,2013-08-29 04:03:00,
2013-08-28 22:04:00,59.9,47.0,22.49,SW,225,9.6,14.0,61,0.00,,,0.00,Rainwise IP-100,2013-08-29 04:04:00,
2013-08-28 22:08:00,59.8,46.0,22.49,SW,225,5.8,13.0,61,0.00,,,0.00,Rainwise IP-100,2013-08-29 04:08:00,
2013-08-28 22:13:00,59.6,47.0,22.50,SW,225,6.1,11.0,62,0.00,,,0.00,Rainwise IP-100,2013-08-29 04:13:00,
2013-08-28 22:19:00,59.1,46.0,22.50,SSW,202,7.2,10.0,62,0.00,,,0.00,Rainwise IP-100,2013-08-29 04:19:00,
2013-08-28 22:24:00,58.6,47.0,22.50,SW,225,8.2,12.0,63,0.00,,,0.00,Rainwise IP-100,2013-08-29 04:24:00,
2013-08-28 22:29:00,58.3,46.0,22.50,SW,225,6.5,10.0,64,0.00,,,0.00,Rainwise IP-100,2013-08-29 04:29:00,
2013-08-28 22:34:00,57.9,47.0,22.51,WSW,247,6.8,10.0,65,0.00,,,0.00,Rainwise IP-100,2013-08-29 04:34:00,
2013-08-28 22:39:00,57.6,46.0,22.50,SW,225,10.0,12.0,65,0.00,,,0.00,Rainwise IP-100,2013-08-29 04:39:00,
2013-08-28 22:44:00,57.8,46.0,22.50,SW,225,4.0,13.0,65,0.00,,,0.00,Rainwise IP-100,2013-08-29 04:44:00,
2013-08-28 22:49:00,58.1,46.0,22.50,SW,225,5.1,14.0,64,0.00,,,0.00,Rainwise IP-100,2013-08-29 04:49:00,
2013-08-28 22:54:00,57.8,46.0,22.51,WSW,247,4.4,10.0,64,0.00,,,0.00,Rainwise IP-100,2013-08-29 04:54:00,
2013-08-28 22:59:00,56.9,46.0,22.51,SW,225,9.3,10.0,65,0.00,,,0.00,Rainwise IP-100,2013-08-29 04:59:00,
2013-08-28 23:04:00,56.4,46.0,22.51,WSW,247,7.0,12.0,67,0.00,,,0.00,Rainwise IP-100,2013-08-29 05:04:00,
2013-08-28 23:09:00,56.2,45.0,22.50,SSW,202,12.4,12.4,67,0.00,,,0.00,Rainwise IP-100,2013-08-29 05:09:00,
2013-08-28 23:14:00,55.9,46.0,22.51,SSW,202,8.6,14.0,68,0.00,,,0.00,Rainwise IP-100,2013-08-29 05:14:00,
2013-08-28 23:20:00,55.8,46.0,22.51,SW,225,9.6,12.0,68,0.00,,,0.00,Rainwise IP-100,2013-08-29 05:20:00,
2013-08-28 23:25:00,55.7,46.0,22.51,SW,225,8.2,13.0,68,0.00,,,0.00,Rainwise IP-100,2013-08-29 05:25:00,
2013-08-28 23:30:00,55.4,45.0,22.51,SW,225,8.2,11.0,69,0.00,,,0.00,Rainwise IP-100,2013-08-29 05:30:00,
2013-08-28 23:35:00,55.4,45.0,22.51,SW,225,10.3,11.0,69,0.00,,,0.00,Rainwise IP-100,2013-08-29 05:35:00,
2013-08-28 23:40:00,55.3,45.0,22.51,SW,225,7.2,11.0,69,0.00,,,0.00,Rainwise IP-100,2013-08-29 05:40:00,
2013-08-28 23:45:00,55.2,45.0,22.52,SW,225,8.9,11.0,69,0.00,,,0.00,Rainwise IP-100,2013-08-29 05:45:00,
2013-08-28 23:50:00,55.2,45.0,22.52,SSW,202,13.5,13.5,68,0.00,,,0.00,Rainwise IP-100,2013-08-29 05:50:00,
2013-08-28 23:55:00,55.4,45.0,22.52,SW,225,11.4,14.0,68,0.00,,,0.00,Rainwise IP-100,2013-08-29 05:55:00,